Miscellaneous Local Product
Issued by NWS North Platte, NE

Home | Current Version | Previous Version | Text Only | Print | Product List | Glossary On
Versions: 1 2 3 4 5 6 7 8 9 10 11 12 13 14 15 16 17 18 19 20 21 22 23 24 25 26 27 28 29 30 31 32 33 34 35 36 37 38 39 40 41 42 43 44 45 46 47 48 49 50
219
AXUS43 KLBF 052110
MISLBF


WESTERN AND NORTH CENTRAL NEBRASKA HOURLY WEATHER ROUNDUP
NATIONAL WEATHER SERVICE NORTH PLATTE NE
300 PM CST FRI FEB 05 2016

NOTE: "FAIR" INDICATES FEW OR NO CLOUDS BELOW 12,000 FEET WITH NO
SIGNIFICANT WEATHER AND/OR OBSTRUCTIONS TO VISIBILITY.

NOTE: STATIONS NOT REPORTING VARIABLES SUCH AS SKY/WEATHER OR
PRESSURE ARE PROVIDED BY THE NEBRASKA DEPARTMENT OF
ROADS...RAWS...AND APRS NETWORKS...AND ARE NOT UNDER
NATIONAL WEATHER SERVICE QUALITY CONTROL.

...OBSERVATIONS IN AND NEAR THE EASTERN PANHANDLE OF NEBRASKA...

CITY           SKY/WX    TMP DP  RH WIND       PRES   REMARKS
PINE RIDGE     MOSUNNY   38  24  57 W12       30.22F WCI  30
CHADRON        SUNNY     37  25  61 W20G28    30.23F WCI  27
ALLIANCE       SUNNY     33  24  69 NW18      30.21S WCI  22
SIDNEY         SUNNY     31  22  69 NW20      30.24F WCI  19
CRESCENT LAKE    N/A     36  24  63 NW15        N/A  WCI  27
BIG SPRINGS      N/A     35  25  68 NW8         N/A  WCI  28
$$

...OBSERVATIONS IN NORTH CENTRAL NEBRASKA...

CITY           SKY/WX    TMP DP  RH WIND       PRES   REMARKS
VALENTINE      CLOUDY    33  24  69 NW16G26   30.20R WCI  23
THEDFORD       CLOUDY    36  26  68 NW21G26   30.19S WCI  25
AINSWORTH      CLOUDY    34  28  76 NW17G25   30.18S WCI  24
O`NEILL        CLOUDY    37  30  77 NW17      30.16S WCI  27
ORD            CLOUDY    39  27  62 NW12      30.16F WCI  32
BROKEN BOW     PTSUNNY   37  26  64 NW24G32   30.17F WCI  26
VALENTINE NWR    N/A     34  25  69 NW16G23     N/A  WCI  24
BUTTE            N/A     33  31  94 W12G20      N/A  WCI  24
HALSEY           N/A     37  25  63 NW10G23     N/A  WCI  30
CHAMBERS         N/A     39  28  65 W3G12       N/A
EWING            N/A     38  31  77 NW9         N/A  WCI  31
$$

...OBSERVATIONS IN SOUTHWEST NEBRASKA AND FAR NORTHEAST COLORADO...

CITY           SKY/WX    TMP DP  RH WIND       PRES   REMARKS
WRAY           FAIR      38  22  54 NW17      30.25F WCI  28
HOLYOKE        FAIR      37  23  56 NW15G23   30.24S WCI  28
IMPERIAL       SUNNY     35  23  61 NW12      30.23F WCI  27
OGALLALA       SUNNY     35  22  60 NW14      30.23R WCI  25
NORTH PLATTE   CLOUDY    37  26  64 NW12      30.21S WCI  29
MCCOOK         MOSUNNY   37  26  64 NW13      30.23F WCI  29
LEXINGTON      MOSUNNY   36  27  70 W10       30.20F WCI  29
PAXTON           N/A     37  31  78 NW7         N/A  WCI  31
STAPLETON        N/A     36  29  74 CALM        N/A
GOTHENBURG       N/A     38  27  63 NW7         N/A  WCI  33
CALLAWAY         N/A     36  28  72 NW20        N/A  WCI  25
$$

...OBSERVATIONS IN CENTRAL LINCOLN COUNTY AREA...

CITY           SKY/WX    TMP DP  RH WIND       PRES   REMARKS
N.P. AIRPORT   CLOUDY    37  26  64 NW12      30.21S WCI  29
N.P. DOWNTOWN    N/A     37  29  72 NW7         N/A  WCI  31
N.P. SOUTHEAST   N/A     38  28  68 NW7G15      N/A  WCI  33
N.P. HILLCREST   N/A     36  28  73 NW13        N/A  WCI  27
$$

...SOME OBSERVATIONS FROM AROUND THE REGION...

CITY           SKY/WX    TMP DP  RH WIND       PRES   REMARKS
DENVER         MOSUNNY   34  12  40 NE7       30.26F WCI  28
LARAMIE        CLOUDY    27  12  53 NE7       30.22F WCI  19
CHEYENNE       SUNNY     30  11  45 N13G23    30.21F WCI  20
SCOTTSBLUFF    SUNNY     34  19  54 W17       30.26S WCI  23
RAPID CITY     SUNNY     41  23  48 NW17      30.19F
BISMARCK       SUNNY     42  20  41 NW13      30.15F
PIERRE         MOSUNNY   40  27  59 NW15      30.18S WCI  32
WINNER         CLOUDY    36  30  79 NW17G25   30.18S WCI  26
SIOUX FALLS    CLOUDY    29  25  85 SW9       30.15S WCI  20
OMAHA          LGT SNOW  30  27  88 S13       30.25F FOG     WCI  20
GRAND ISLAND   CLOUDY    36  30  79 W8        30.19F WCI  30
KANSAS CITY    PTSUNNY   41  22  46 S7        30.31S
WICHITA        PTSUNNY   50  24  36 SW7       30.24F
OKLAHOMA CITY  CLOUDY    53  24  32 S12       30.23F
LIBERAL        MOSUNNY   43  16  33 N22G30    30.24S
HAYS           SUNNY     37  19  48 W12       30.26F WCI  30
GOODLAND       SUNNY     35  21  56 NW18      30.25F WCI  24
$$




USA.gov is the U.S. government's official web portal to all federal, state and local government web resources and services.